Location: Chuathbaluk
(61.5726°N, 159.2454°W)
Time: 05:58:34
(UTC+00:00)

Explorer 7 - Pass Details

Date: 08 December 2021
Orbit: 483 x 674 km, 50.3° (Epoch: 25 January)

Event Time Altitude Azimuth Distance (km) Brightness Sun altitude
Exits shadow 16:47:50 - 218° (SW) 1,981 9.4 -17.7°
Reaches altitude 10° 16:48:13 10° 214° (SW) 1,872 9.3 -17.7°
Maximum altitude 16:50:59 17° 174° (S) 1,439 9.2 -17.4°
Drops below altitude 10° 16:53:39 10° 133° (SE) 1,797 10.4 -17.1°
Sets 16:56:25 0° 112° (ESE) 2,651 12.1 -16.8°
